sat.trackr.live / text

‹ back to catalog

STARLINK-3894

NORAD 52499 · 2022-049BA

PAYLOAD ACTIVE UNKNOWN

§ Identity

Operator
Country
US
Launch date
2022-05-06
Launch site
AFETR
Launch vehicle
Mass (kg)
RCS (m²)

Purposes: comms

External: N2YO · Heavens-Above · Gunter

§ Orbital elements

Epoch: 2026-05-25T06:00:02.000160Z

Period
93.78 min
Inclination
53.2290°
Eccentricity
0.0001237
Mean motion
15.35454678 rev/d
Perigee alt
458.7 km
Apogee alt
460.4 km
Semi-major
6,837.7 km
B*
2.8341e-2
RAAN
63.7704°
Arg perigee
78.7915°
Mean anomaly
33.5726°
Rev number
579

§ Raw data

STARLINK-38941 52499U 22049BA  26145.25002315  .01081996  00000+0  28341-1 0  99942 52499  53.2290  63.7704 0001237  78.7915  33.5726 15.35454678  5794

JSON: /api/v1/satellites/52499 · /tle

For live sub-satellite position, see the globe view (requires WebGL).

§ Visibility from observer

Set your observer location to see the next 7 days of passes ≥ 10°. The values pass through the URL so the page stays shareable.

No JS? Fill the form by hand. The geolocation button needs JavaScript.